User: anonymous   Login
Location: Unspecified
(0.0000°N, 0.0000°E)
Time: 00:20:01
(UTC+00:00)
Language:

USA 250 - Orbit

View from above orbital plane
View from above orbital plane
View from above satellite
View from above satellite

Ground track
Ground track

The orbit data is extracted from the following two-line orbital elements,

1 39652U 14020A   17015.02195921 0.00000000  00000-0  00000-0 0    08
2 39652   2.8469 319.5183 0003455 332.8264  27.1575  1.00270006    04
Epoch (UTC): 15 January 2017 00:31:37
Eccentricity: 0.0003455
inclination: 2.8469°
perigee height: 35772 km
apogee height: 35801 km
right ascension of ascending node: 319.5183°
argument of perigee: 332.8264°
revolutions per day: 1.00270006
mean anomaly at epoch: 27.1575°
orbit number at epoch: 0

The dashed part of the orbit path shows where the satellite is in the earth's shadow,  

DLR